#timestamp,LO_Frequency,Hit,StdDev 
1545987615.8,286046998.8,N
1545987635.6,286046999.1,N
1545987655.4,286046998.9,N
1545987675.3,286046998.6,N
1545987695.1,286047000.7,N
1545987715.9,286047001.0,N
1545987735.7,286047000.4,N
1545987755.5,286047000.5,N
1545987775.4,286046999.8,N
1545987795.2,286046998.3,N
1545987815.0,286046998.4,N
1545987815.9,286046998.4,N
1545987835.8,286046998.6,N
1545987855.6,286047000.7,N
1545987875.5,286046998.8,N
1545987895.3,286046999.0,N
1545987915.1,286046999.3,N
1545987935.9,286047000.4,N
1545987955.7,286047001.9,N
1545987975.5,286047000.8,N
1545987995.4,286046998.6,N
1545988015.2,286046998.3,N
1545988035.1,286047000.0,N
1545988036.0,286047000.0,N
1545988055.8,286047002.7,N
1545988075.6,286047002.7,N
1545988095.5,286047000.3,N
1545988115.3,286047000.8,N
1545988135.1,286047000.0,N
1545988155.9,286047000.6,N
1545988175.7,286046998.5,N
1545988195.6,286046999.0,N
1545988215.4,286047001.0,N
1545988235.2,286047000.0,N
1545988255.1,286046999.7,N
1545988256.0,286046999.7,N
1545988275.8,286047001.2,N
1545988295.6,286047001.2,N
1545988315.5,286047000.3,N
1545988335.3,286046998.1,N
1545988355.2,286046998.6,N
1545988375.9,286046998.4,N
1545988395.7,286046996.9,N
1545988415.6,286046995.9,Y
1545988435.4,286046995.3,P
1545988455.2,286046996.3,N
1545988475.1,286046994.0,P
1545988476.0,286046994.0,N
1545988495.8,286046993.4,Y
1545988515.7,286047001.2,P
1545988535.5,286046998.9,N
1545988555.3,286047002.4,N
1545988575.2,286046999.9,N
1545988595.0,286047000.3,N
1545988595.9,286047000.3,N
1545988615.8,286047000.9,N
1545988635.6,286047002.3,N
1545988655.4,286047002.2,N
1545988675.3,286047002.0,N
1545988695.1,286047004.0,N
1545988715.8,286047003.8,N
1545988735.7,286047002.5,N
1545988755.5,286046999.9,N
1545988775.3,286046998.6,N
1545988795.2,286047000.1,N
1545988815.0,286047000.9,N
1545988815.9,286047000.9,N
1545988835.8,286047000.8,N
1545988855.6,286047000.7,N
1545988875.4,286047001.0,N
1545988895.3,286047001.2,N
1545988915.1,286046998.1,N
1545988935.8,286046999.7,N
1545988955.7,286047001.0,N
1545988975.5,286047004.3,N
1545988995.4,286047002.6,N
1545989015.2,286047002.8,N
1545989035.0,286047001.0,N
1545989035.9,286047001.0,N
1545989055.8,286047000.4,N
1545989075.6,286047002.8,N
1545989095.4,286047001.1,N
1545989115.3,286047000.1,N
1545989135.1,286047002.6,N
1545989155.9,286046999.9,N
1545989175.7,286047000.0,N
1545989195.5,286047002.7,N
1545989215.4,286047001.1,N
1545989235.2,286047002.8,N
1545989255.0,286047000.4,N
1545989255.9,286047000.4,N
1545989275.8,286047002.3,N
1545989295.6,286047000.8,N
1545989315.4,286047002.6,N
1545989335.3,286047002.6,N
1545989355.1,286047000.6,N
1545989375.9,286047003.9,Y
1545989395.7,286047000.5,P
1545989415.5,286047000.9,N
1545989435.4,286047000.3,N
1545989455.2,286046999.9,N
1545989475.0,286047002.8,Y
1545989476.0,286047002.8,P
1545989495.8,286046999.0,N
1545989515.6,286046998.2,N
1545989535.5,286047000.1,N
1545989555.3,286046998.5,N
1545989575.1,286046998.6,N
1545989595.9,286046996.9,N
1545989615.7,286046997.3,N
1545989635.5,286046995.0,N
1545989655.4,286046997.9,N
1545989675.2,286046997.6,N
1545989695.1,286046997.4,N
1545989696.0,286046997.4,N
1545989715.8,286046996.7,N
1545989735.6,286046999.2,N
1545989755.5,286046997.1,N
1545989775.3,286046997.1,N
1545989795.1,286046997.6,N
1545989815.9,286046997.2,N
1545989835.7,286046995.3,N
1545989855.6,286046997.9,N
1545989875.4,286046997.6,N
1545989895.2,286046995.4,N
1545989915.1,286046997.9,N
1545989916.0,286046997.9,N
1545989935.8,286046997.9,N
1545989955.6,286046998.6,N
1545989975.5,286046998.3,N
1545989995.3,286046998.6,N
1545990015.2,286046998.9,N
1545990035.9,286047000.6,N
1545990055.7,286047000.4,N
1545990075.6,286046998.2,N
1545990095.4,286046998.5,N
1545990115.2,286046999.6,N
1545990135.1,286046999.6,N
1545990136.0,286046999.6,N
1545990155.8,286046996.9,N
1545990175.7,286046997.1,N
1545990195.5,286046999.3,N
1545990215.3,286047000.8,N
1545990235.2,286047001.0,N
1545990255.9,286047000.4,N
1545990275.7,286047002.7,N
1545990295.6,286047000.7,N
1545990315.4,286047000.8,N
1545990335.2,286046998.7,N
1545990355.1,286046999.4,N
1545990356.0,286046999.4,N
1545990375.8,286046999.1,N
1545990395.7,286046998.9,N
1545990415.5,286047001.2,N
1545990435.3,286046999.9,N
1545990455.2,286047000.3,N
1545990475.0,286047000.3,N
1545990475.9,286047000.3,N
1545990495.8,286047000.3,N
1545990515.6,286047001.0,N
1545990535.4,286047001.1,N
1545990555.3,286047000.2,N
1545990575.1,286046999.8,N
1545990595.8,286047000.7,N
1545990615.7,286047001.0,N
1545990635.5,286047000.3,N
1545990655.4,286046996.6,N
1545990675.2,286046998.4,N
1545990695.0,286047000.8,N
1545990695.9,286047000.8,N
1545990715.8,286046997.0,N
1545990735.6,286046996.7,N
1545990755.4,286046998.6,N
1545990775.3,286047000.0,N
1545990795.1,286046999.1,N
1545990815.9,286046999.6,N
1545990835.7,286046999.2,N
1545990855.5,286046996.7,N
1545990875.4,286046997.6,N
1545990895.2,286046997.7,N
1545990915.0,286046997.7,N
1545990916.0,286046997.7,N
1545990935.8,286046996.7,N
1545990955.6,286046996.6,N
1545990975.5,286046997.3,N
1545990995.3,286046999.3,N
1545991015.1,286046999.1,N
1545991035.9,286046998.7,N
1545991055.7,286046998.9,N
1545991075.5,286046999.0,N
1545991095.4,286046998.9,N
1545991115.2,286046997.7,N
1545991135.1,286046997.8,N
1545991136.0,286046997.8,N
1545991155.8,286046998.4,N
1545991175.6,286046996.5,N
1545991195.5,286046999.6,N
